Starlink 5880

operational
NORAD ID: 57220 Int'l Des: 2023-094 Owner: SPXS Country: US Constellation: starlink
LEOCIRCULAR

About Starlink 5880

Description loading...

Live Position

Loading 3D Globe...

Upcoming Passes

Altitude History

Altitude vs Time

uPlot chart will show altitude changes over time

Two-Line Element Set

1 57220U 23094C 25304.55971065 .00000127 00000-0 24505-4 0 9996
2 57220 43.0059 12.1418 0001358 265.8751 94.1936 15.02534493127690
Epoch: Oct 31, 2025 • Age: 8 hours

Current Status

Altitude 563.0 km
Velocity 7.59 km/s
Sub-Earth Point 42.26°N, 106.28°E
Launch Date Jul 7, 2023
Age 2.3 years
Type internet

Technical Details

Classification Payload
Mass 305.00 kg
Dry Mass 290.00 kg
Total Mass 305.00 kg
Length 0.20 m
Diameter 2.80 m
Span 9.00 m
Shape Box + pan
Manufacturer SPXS
Bus Type Starlink
Phase Status In Orbit
Owner/State SPXS/US

Large Constellations

Loading constellations...